Location: Helion Bumpstead
(52.0500°N, 0.4000°E)
Time: 22:04:20
(UTC+00:00)

COSMOS 2455 - Pass Details

Date: 15 November 2025
Orbit: 897 x 910 km, 67.1° (Epoch: 06 December)

Event Time Altitude Azimuth Distance (km) Brightness Sun altitude
Exits shadow 04:12:20 26° 349° (NNW) 1,725 4.2 -28.4°
Drops below altitude 10° 04:16:33 10° 32° (NNE) 2,608 5.7 -27.7°
Sets 04:19:30 0° 45° (NE) 3,552 6.6 -27.3°
